Location: Hac?musa Deresi
(39.1694°N, 32.2508°E)
Time: 10:29:01
(UTC+00:00)

IDEFIX/ARIANE 42P - Pass Details

Date: 22 April 2026
Orbit: 780 x 797 km, 98.6° (Epoch: 12 May)

Event Time Altitude Azimuth Distance (km) Brightness Sun altitude
Rises 23:40:23 0° 11° (N) 3,278 6.7 -32.3°
Reaches altitude 10° 23:42:43 10° 10° (N) 2,348 5.7 -32.0°
Enters shadow 23:46:22 47° 359° (N) 1,042 3.4 -31.6°
